Location: Lac de la Montange Noire
(46.1952°N, 74.2701°W)
Time: 13:09:15
(UTC-04:00)

Iridium 42 - Visible Passes

Search period start: 26 June 2016 00:00
Search period end: 06 July 2016 00:00
Orbit: 775 x 778 km, 86.4° (Epoch: 26 June)

Date Brightness Start Highest point End Pass type
(mag) Time Alt. Az. Time Alt. Az. Time Alt. Az.
26 Jun 8.9 03:53:01 10° ENE 03:53:45 10° ENE 03:54:28 10° ENE visible
28 Jun 8.0 04:23:14 10° NNE 04:27:30 25° ENE 04:31:43 10° SE visible
29 Jun 8.4 03:50:31 10° NE 03:53:19 14° ENE 03:56:08 10° ESE visible
01 Jul 7.4 04:22:13 10° NNE 04:26:56 33° ENE 04:31:37 10° SE visible
02 Jul 8.2 03:49:04 10° NNE 03:52:51 20° ENE 03:56:35 10° ESE visible
03 Jul 8.5 03:17:02 10° NE 03:18:36 11° ENE 03:20:10 10° E visible
04 Jul 6.7 04:21:18 10° N 04:26:20 46° E 04:31:19 10° SSE visible
05 Jul 7.7 03:47:56 10° NNE 03:52:19 27° ENE 03:56:40 10° SE visible
